Wind_Speed
60 61 63 64 65 66 67 68 69 69 70 70 70 71 72 73 73 74 74 74 73 73 73 73 73 73 73 73 73 72 72 72 72 71 71 71 71 72 71 71 71 71 70 69 70 71 72 72 72 75 79 82 82 81 79 78 76 75 75 75 74 73
58 60 61 63 64 65 66 67 68 69 70 71 71 71 72 73 73 74 75 75 76 76 75 75 75 75 75 75 75 75 75 75 74 74 74 73 73 73 73 73 73 73 72 71 70 71 71 71 71 71 73 77 80 82 82 81 80 78 76 74 74 72
59 60 60 61 63 65 66 67 68 69 70 71 71 72 73 73 74 74 75 76 76 77 77 78 77 77 77 77 77 78 77 77 77 77 76 76 76 75 75 75 75 75 75 74 73 72 72 72 71 71 71 73 75 78 80 81 81 81 80 78 76 75
61 62 62 63 63 64 65 67 68 70 71 71 72 73 73 74 75 75 76 76 77 77 78 79 79 79 80 80 80 80 80 80 79 79 79 79 78 78 78 77 77 77 77 77 76 75 74 74 73 73 72 72 72 74 76 78 79 80 80 80 79 78
60 62 64 65 66 66 66 67 68 70 71 72 73 74 75 75 76 76 77 77 78 78 79 79 80 80 81 81 82 82 82 82 82 82 82 82 81 81 80 80 80 79 79 79 79 78 77 76 76 75 74 73 72 73 74 74 76 77 78 79 79 79
60 61 62 64 66 67 68 69 69 70 71 72 74 75 76 76 77 78 78 79 79 79 80 80 81 81 82 82 83 84 84 84 84 84 84 84 84 84 83 83 83 82 82 82 81 81 80 80 79 78 77 76 75 74 74 74 74 74 75 76 77 78
63 63 63 64 65 67 68 69 70 71 72 73 74 75 76 77 78 79 79 80 81 81 81 82 82 82 83 83 83 84 85 85 86 86 86 86 86 86 86 85 85 85 84 84 84 84 83 83 82 81 80 79 78 77 76 75 75 74 74 75 75 76
64 65 66 66 67 68 69 70 71 72 72 73 74 75 76 77 78 79 80 81 82 82 83 83 84 84 84 84 85 85 85 86 86 87 87 88 88 88 88 88 88 87 87 87 86 86 86 86 85 84 83 82 81 80 79 78 77 76 76 75 75 75
64 66 67 68 69 70 71 72 72 73 74 75 75 76 76 78 79 80 81 81 82 83 84 84 85 86 86 86 86 87 87 87 87 87 88 88 89 89 90 90 90 90 90 89 89 89 88 88 88 87 86 86 84 83 82 81 80 79 78 78 77 76
64 65 67 68 70 71 72 73 75 76 77 77 78 78 79 79 80 80 81 82 83 84 85 85 86 86 87 88 88 88 89 89 89 89 89 89 89 90 90 90 91 91 92 92 91 91 91 90 90 89 89 88 88 86 85 84 82 81 81 80 79 79
64 66 67 68 70 71 73 74 76 77 78 79 80 81 82 82 83 83 83 84 84 85 85 86 87 88 88 89 89 90 90 90 91 91 91 91 91 91 91 91 91 91 92 92 93 93 93 93 92 92 91 91 90 89 88 87 86 84 83 82 82 81
66 67 68 70 71 72 74 75 77 78 79 80 81 82 83 85 85 86 86 87 87 87 87 88 88 89 89 90 90 91 91 92 92 92 92 92 92 92 92 92 92 92 92 92 93 93 93 94 94 94 94 93 93 92 91 90 88 87 86 85 84 83
67 69 70 71 73 74 76 77 78 80 81 82 83 84 85 86 87 88 89 90 90 90 90 90 90 90 91 91 92 92 92 93 93 93 94 94 94 94 94 94 93 94 94 93 93 94 94 94 95 95 95 95 95 94 93 92 91 90 89 87 86 85
69 70 71 73 74 75 77 78 80 81 83 84 85 86 87 88 88 89 90 91 92 93 93 93 94 94 94 93 93 94 94 94 95 95 95 95 95 95 96 96 95 95 95 95 95 95 95 95 95 96 95 95 95 96 95 94 93 92 91 90 89 87
69 71 72 73 75 76 77 79 80 81 83 84 86 87 89 90 91 92 92 93 94 95 95 96 96 96 97 97 97 96 96 96 96 96 97 97 97 97 97 97 97 97 97 97 96 96 96 96 97 97 97 97 96 96 96 95 94 93 93 92 91 90
67 68 70 71 73 74 76 77 78 80 81 83 84 86 88 89 91 92 94 95 96 96 97 97 98 98 99 99 99 99 99 99 99 99 99 98 99 99 99 99 99 99 99 99 98 98 97 98 98 98 98 98 98 98 98 97 95 94 93 93 92 92
65 66 67 68 69 71 72 74 75 77 78 80 81 83 85 86 88 90 91 94 96 97 98 99 99 100 101 101 101 101 102 102 102 102 101 101 101 101 101 101 101 101 101 101 100 100 99 99 99 100 100 100 100 100 100 99 98 96 95 94 93 92
63 64 65 65 66 67 68 70 71 73 74 76 77 79 81 82 84 85 87 90 92 95 96 98 99 100 101 102 103 103 103 104 104 104 104 104 104 103 103 103 103 103 103 103 103 102 101 101 101 101 101 101 102 101 101 100 100 99 98 96 95 94
61 61 62 62 63 64 65 66 67 68 69 71 73 74 76 77 78 80 82 84 87 89 91 93 95 97 99 100 101 102 104 104 105 105 105 105 106 106 106 106 105 105 105 105 105 104 103 103 103 103 103 103 104 103 103 102 101 101 100 99 98 96
58 58 59 60 60 61 61 62 63 64 65 66 67 69 70 71 72 74 76 78 80 82 84 86 88 90 92 95 97 99 101 102 104 105 105 106 106 107 107 107 108 108 108 107 107 107 106 106 106 106 106 105 106 105 105 104 103 103 102 101 100 99
56 56 57 57 58 58 59 59 59 60 61 62 63 64 65 66 67 69 70 72 74 75 77 79 81 83 85 87 90 92 95 97 99 101 102 104 105 106 106 107 108 108 109 109 109 109 109 108 108 108 108 108 108 108 107 107 106 105 104 103 102 101
54 54 55 56 56 56 56 56 56 57 57 58 59 59 60 60 62 63 65 66 67 69 70 71 73 75 77 79 81 83 86 89 91 94 96 99 101 103 104 105 106 107 108 109 110 111 111 111 110 110 110 110 110 110 109 109 108 107 107 106 105 104
52 53 54 54 53 53 53 52 52 53 53 54 54 54 54 55 56 57 58 60 61 62 63 64 65 67 69 71 73 75 77 80 83 85 88 91 94 97 99 101 102 104 105 106 108 109 111 112 112 112 111 111 111 112 112 111 110 110 109 108 107 106
51 52 52 52 51 50 50 49 49 49 49 50 50 49 50 50 51 52 53 54 55 56 57 58 59 60 62 64 65 67 69 72 74 76 79 82 85 88 91 94 96 98 100 102 104 106 108 110 111 112 112 112 112 113 113 113 112 112 112 111 110 108
50 50 51 50 49 48 47 46 46 46 46 46 46 46 47 48 49 50 50 51 51 52 52 53 54 55 56 57 59 60 62 64 66 68 71 73 76 78 81 85 88 91 93 95 97 100 103 105 107 109 111 112 112 112 113 114 114 114 114 114 112 111
49 49 49 49 47 46 44 44 43 44 44 44 44 44 45 46 47 47 47 48 48 48 49 50 51 51 52 53 54 55 56 58 60 62 64 66 68 70 72 75 79 82 85 87 90 92 95 99 102 104 107 109 110 111 111 112 114 115 116 116 115 114
48 48 48 47 46 44 43 42 42 42 42 42 42 42 43 44 44 44 44 44 44 44 45 46 47 47 48 49 50 51 52 53 55 56 58 60 62 64 66 68 71 74 77 79 82 84 87 90 94 97 100 103 106 107 109 110 112 113 115 116 116 115
47 46 46 46 45 43 42 41 41 40 40 41 41 41 42 42 41 41 41 41 41 41 41 41 42 43 44 44 45 46 48 49 50 52 54 56 57 59 61 63 65 67 69 72 74 76 78 81 85 88 91 95 98 101 104 106 108 110 112 114 115 115
46 46 45 45 44 42 41 41 40 39 39 39 39 40 40 40 40 39 39 39 39 39 38 39 39 40 40 41 42 43 44 45 46 48 50 51 53 55 57 59 61 63 64 66 67 69 71 74 76 79 83 86 90 93 96 99 102 104 107 110 112 114
45 44 44 43 42 41 40 40 40 39 38 38 38 39 39 39 38 38 38 38 38 37 37 38 38 38 38 39 39 40 41 42 43 45 46 48 50 51 53 55 57 58 60 61 62 64 65 67 70 72 75 79 81 84 87 90 93 96 99 103 106 109
44 44 43 42 41 40 39 40 40 38 37 37 37 38 39 38 38 37 37 37 37 37 37 37 37 37 37 37 38 39 40 41 41 42 44 45 47 48 50 51 52 54 55 56 57 58 60 61 63 66 69 72 74 77 79 82 84 87 90 94 98 102
43 43 42 41 39 38 38 39 39 38 36 36 37 38 38 37 37 37 37 36 36 36 36 36 36 36 36 37 37 38 39 40 40 40 40 42 44 45 46 48 49 49 50 50 51 52 53 55 56 58 61 64 67 70 72 75 77 80 82 85 89 93
43 42 42 40 38 36 37 38 39 38 36 35 36 37 37 36 36 37 37 36 36 36 36 36 36 36 37 37 37 37 38 39 40 40 40 40 41 42 43 45 45 45 45 46 46 46 46 47 49 51 54 56 59 62 65 68 70 73 75 78 81 84
43 42 41 39 37 36 36 38 38 37 36 36 36 36 36 36 36 36 36 36 35 35 36 36 36 36 37 37 37 37 37 37 38 40 41 41 41 41 41 42 43 43 43 42 42 42 41 41 42 44 46 49 52 55 57 60 62 65 68 71 74 76
42 41 40 39 37 36 36 37 37 36 35 36 36 36 35 35 35 36 36 36 35 35 35 35 35 36 36 37 37 37 37 37 37 37 39 41 42 42 41 41 42 42 41 41 40 40 39 38 38 38 40 43 46 49 51 52 55 58 61 64 67 69
42 41 40 39 37 37 36 37 36 35 35 36 36 35 35 35 35 36 36 36 36 36 36 35 35 35 35 36 36 36 37 37 37 37 37 38 39 41 42 42 42 42 41 40 39 39 37 36 36 36 37 39 41 43 45 47 48 51 54 57 59 61
42 41 40 39 38 37 37 36 35 34 35 36 36 35 35 35 34 35 35 36 36 36 36 36 35 35 35 35 36 36 36 37 37 37 37 37 36 37 38 40 42 42 41 40 39 39 37 35 34 35 36 38 38 40 41 43 44 46 48 50 52 54
42 41 40 39 38 38 37 36 35 34 35 35 35 35 35 35 34 34 35 35 35 36 36 36 36 35 35 35 35 35 36 36 36 36 36 37 36 36 36 37 38 38 39 39 39 38 36 34 33 33 35 36 37 37 37 39 40 41 43 45 46 48
Wind_Direction
258 257 256 256 256 256 255 255 255 255 255 254 254 253 253 253 253 253 253 252 252 252 251 251 251 251 251 251 252 253 253 253 254 254 254 255 255 256 257 257 257 258 259 258 257 257 257 257 257 256 256 256 256 255 254 254 253 253 253 252 252 252
258 258 257 256 256 255 255 255 255 255 255 255 255 254 254 254 254 253 253 253 253 253 252 252 251 251 251 251 251 252 252 253 253 254 254 255 255 255 257 258 258 259 259 260 259 259 258 258 258 258 257 257 257 258 257 257 256 256 255 254 253 252
258 258 258 257 257 256 256 255 255 255 255 255 255 255 255 254 254 254 254 253 254 253 253 253 252 252 252 252 252 252 252 252 253 253 254 254 255 255 256 256 258 258 259 260 261 261 260 260 260 259 258 258 258 258 259 259 258 258 258 257 256 255
258 258 258 258 258 257 257 256 256 255 255 255 255 255 255 255 254 254 254 254 253 253 253 253 253 253 253 252 252 252 252 252 253 253 253 254 254 255 255 256 256 257 258 259 260 261 261 261 261 261 261 260 259 259 259 260 260 260 260 259 259 258
260 259 258 258 258 258 258 257 257 256 256 255 255 255 255 255 255 254 254 254 254 253 253 253 253 253 253 253 253 253 253 253 253 253 253 254 254 254 255 255 256 256 257 258 259 260 260 261 261 262 262 262 261 260 260 260 260 261 261 261 261 260
263 262 261 260 259 259 258 258 258 257 257 256 256 256 255 255 255 254 254 254 254 254 254 253 253 253 253 253 253 253 253 253 253 253 253 254 254 254 254 255 255 256 256 257 258 259 260 260 260 261 261 262 262 262 261 261 262 261 261 262 262 262
265 265 264 263 262 261 260 259 259 258 258 257 257 257 256 256 255 255 255 254 254 254 254 254 253 253 253 253 253 253 253 253 253 253 253 253 254 254 255 255 255 255 256 256 257 257 258 259 260 260 260 261 261 261 262 262 262 262 262 262 262 263
267 266 266 265 264 263 262 261 260 259 258 258 257 257 257 257 256 256 255 255 255 254 254 254 254 254 254 253 253 253 253 253 253 253 253 253 253 254 254 255 255 255 255 256 256 257 257 258 258 259 260 260 260 260 261 261 261 262 262 262 262 263
268 267 266 266 266 265 264 264 263 262 261 259 258 257 257 256 256 256 256 256 255 255 255 255 254 254 254 254 254 254 254 253 253 253 253 253 253 253 254 254 255 255 255 256 256 256 257 257 257 258 259 259 260 260 260 260 260 260 261 261 262 262
270 269 268 267 267 266 265 265 264 263 262 261 260 259 258 257 257 256 256 256 256 255 255 255 254 254 254 254 254 254 254 254 254 254 254 253 253 253 253 254 254 254 255 255 256 256 256 257 257 257 258 258 259 259 260 260 260 260 260 260 261 261
273 272 271 270 269 268 267 266 265 264 263 262 262 261 260 259 258 257 256 256 255 255 255 255 255 254 254 254 254 254 254 254 254 254 254 254 254 254 254 253 253 254 254 255 255 256 256 256 257 257 257 258 258 259 259 259 260 259 259 259 260 260
274 273 272 271 270 270 269 268 267 266 265 264 263 262 261 260 259 259 258 257 256 255 255 255 255 255 254 254 254 254 254 254 254 254 254 254 254 254 254 254 254 254 254 254 254 255 255 256 256 256 257 257 257 258 258 259 259 259 259 259 259 259
275 274 273 272 271 270 269 268 267 267 266 265 264 263 262 261 260 259 259 258 257 256 256 255 254 254 254 254 254 254 254 254 254 254 254 254 254 254 254 254 254 254 254 254 254 254 255 255 256 256 256 256 257 257 257 257 258 259 259 259 259 259
277 276 274 273 271 270 269 268 267 266 265 265 264 263 262 262 261 260 259 258 258 257 256 256 255 255 254 254 254 254 254 254 254 254 254 254 254 254 254 254 254 254 254 254 254 254 255 255 255 255 256 256 256 256 256 257 257 257 258 259 259 259
279 278 276 274 273 272 270 269 268 267 265 264 263 263 262 261 261 260 259 259 258 257 257 256 256 255 255 255 254 254 253 253 254 254 254 254 254 254 255 255 255 254 254 254 254 254 255 255 255 255 255 256 256 256 256 256 256 256 257 257 258 258
281 279 278 276 275 273 272 271 270 269 267 266 265 264 263 262 261 260 260 259 259 258 257 257 256 256 255 255 255 254 254 253 253 253 253 253 254 254 254 255 255 255 255 255 254 254 254 255 255 255 255 255 256 256 256 256 256 256 256 256 257 257
283 282 280 278 277 275 274 273 272 271 270 269 268 266 265 264 263 262 261 260 259 259 258 257 257 256 256 255 255 255 254 254 254 253 253 253 253 253 254 254 254 254 255 255 255 254 254 254 254 255 255 255 255 256 256 256 256 256 256 256 256 256
285 284 282 280 279 277 276 275 274 273 272 271 270 269 268 267 266 265 263 262 261 260 259 258 258 257 257 256 256 255 255 254 254 254 253 253 253 253 253 253 253 254 254 254 254 254 254 255 255 255 254 254 255 255 255 255 256 256 256 256 256 256
288 286 284 283 281 280 279 277 276 275 274 273 272 271 270 269 268 267 266 265 264 262 261 260 260 259 259 258 257 257 256 256 255 255 254 254 254 253 253 253 253 253 253 253 254 254 254 254 254 255 255 255 254 254 254 255 255 255 256 256 256 256
290 288 287 285 284 283 282 281 279 278 277 275 274 273 272 271 270 269 268 267 266 265 264 263 262 261 261 260 259 259 258 257 257 256 256 255 255 254 254 253 253 253 253 253 253 253 253 254 254 254 254 255 255 255 254 254 254 254 254 255 255 255
293 291 289 288 286 285 284 283 282 280 279 277 276 274 273 272 271 270 269 268 267 267 266 265 264 264 263 262 261 261 260 260 259 258 258 257 256 256 255 255 254 254 254 253 253 253 253 253 253 254 254 254 255 255 255 254 254 254 254 254 254 254
295 294 292 290 289 288 286 285 283 281 280 278 277 276 275 274 272 271 270 269 269 268 267 267 266 265 264 264 263 263 262 261 261 260 260 259 258 258 257 257 256 256 255 255 254 254 253 253 253 253 254 254 254 254 254 254 254 254 254 254 253 254
297 296 294 293 291 290 288 286 285 283 281 279 278 278 277 275 274 273 272 271 270 269 269 268 267 267 266 265 265 264 264 263 262 262 261 261 260 260 259 259 258 258 257 257 256 256 255 254 254 253 254 254 254 254 254 254 254 254 254 254 254 254
300 298 297 295 294 292 290 289 286 284 282 281 280 279 278 277 276 275 274 273 273 272 271 270 269 268 267 267 266 266 265 265 264 263 263 262 262 261 261 260 260 259 259 259 258 257 257 256 255 255 255 255 255 254 254 254 254 254 254 254 254 254
302 301 299 297 296 294 292 290 288 286 284 282 282 281 280 279 278 277 276 276 275 274 273 272 271 270 269 268 267 267 267 266 266 265 264 264 263 262 262 261 261 261 260 260 260 259 259 258 257 257 256 256 256 255 255 255 254 254 254 253 253 253
305 303 301 299 297 296 293 291 289 287 285 284 283 282 282 281 280 279 279 278 277 275 274 273 272 271 270 269 269 269 268 268 267 267 266 266 265 264 264 263 262 262 261 261 261 261 261 260 259 258 258 257 257 257 256 256 255 255 254 254 253 253
307 305 303 301 299 297 295 292 290 288 286 285 285 284 284 283 283 282 281 279 278 277 276 275 273 272 271 271 270 270 270 269 269 269 268 268 267 266 266 265 264 263 263 262 261 262 262 262 261 260 260 259 258 258 257 257 257 256 256 255 254 253
309 307 304 302 300 299 296 293 291 289 287 286 286 286 286 285 285 284 282 281 280 279 278 277 276 275 274 273 272 272 271 271 271 271 271 270 270 269 269 268 267 266 265 264 263 263 263 263 262 262 261 261 260 259 259 258 258 257 257 256 255 254
310 308 306 303 301 300 297 294 292 290 289 288 287 286 287 286 286 284 283 282 281 280 280 279 278 277 277 276 276 275 274 274 274 274 274 273 273 272 272 271 270 269 268 267 266 265 264 264 264 263 263 262 261 261 260 260 259 258 258 257 257 256
312 310 307 305 303 301 298 295 293 291 290 289 287 287 287 287 287 285 284 283 282 282 281 280 279 279 279 279 278 278 279 279 279 278 278 277 276 275 274 273 273 272 271 270 268 267 266 266 265 265 264 263 263 262 261 261 260 260 259 258 258 257
315 313 310 307 305 302 299 296 294 292 291 290 288 287 287 288 287 286 285 284 284 283 282 281 280 280 280 280 281 282 282 282 283 283 283 283 281 279 277 276 275 274 273 272 271 270 269 268 267 267 266 265 264 263 262 261 261 261 260 260 259 258
317 315 313 310 308 305 301 297 295 293 292 290 288 287 287 287 287 287 285 285 284 283 283 282 282 281 281 281 282 283 284 285 286 286 286 287 286 284 282 280 278 277 276 275 274 273 272 270 269 269 268 267 266 265 264 262 261 261 260 260 260 259
320 318 316 313 310 306 302 298 296 295 293 291 289 287 287 287 287 286 286 285 284 284 283 283 282 282 281 281 281 282 284 287 289 290 290 290 290 288 287 285 283 282 281 279 277 275 275 274 272 271 270 269 268 267 266 264 263 262 261 260 259 259
322 320 318 316 312 307 302 298 297 296 294 291 289 288 287 286 286 286 286 286 285 284 283 283 282 282 282 282 282 283 283 285 289 292 294 295 294 292 289 288 288 288 287 286 283 281 279 278 277 275 273 272 270 268 267 266 265 264 262 261 260 259
323 322 320 318 314 308 303 300 299 298 295 291 290 289 288 287 286 285 285 286 285 285 284 283 283 282 282 282 283 283 284 285 287 290 293 296 297 296 293 291 291 291 291 291 290 289 287 285 283 280 277 275 273 272 270 269 267 266 264 263 262 261
324 323 322 319 315 311 307 303 302 300 296 292 290 290 289 288 287 285 285 285 285 285 285 284 284 283 283 283 283 283 284 285 286 288 290 293 295 295 294 293 294 294 293 293 294 294 293 291 289 286 283 281 278 276 275 273 271 269 268 266 264 263
325 324 323 320 318 314 311 307 305 302 299 295 293 291 290 289 288 287 285 285 285 285 285 285 285 284 284 284 284 284 284 285 286 287 289 292 293 292 291 291 293 293 293 294 295 296 296 295 293 292 290 287 284 281 279 277 275 273 271 269 267 265
326 325 324 322 319 317 314 311 308 304 301 299 297 294 291 289 288 287 287 286 285 285 284 284 284 284 284 284 284 284 285 285 286 287 288 291 293 293 290 288 289 289 291 293 294 295 295 295 295 296 296 293 289 285 281 279 277 275 273 272 270 268
Height
5563 5563 5564 5564 5565 5565 5566 5567 5567 5568 5569 5570 5571 5572 5573 5574 5575 5576 5578 5579 5580 5581 5582 5584 5585 5586 5587 5588 5589 5590 5591 5591 5592 5593 5594 5595 5596 5596 5597 5599 5600 5601 5602 5604 5606 5608 5609 5611 5612 5614 5615 5617 5619 5621 5623 5624 5626 5627 5629 5631 5633 5635
5555 5555 5555 5555 5556 5556 5557 5557 5558 5559 5560 5561 5562 5563 5564 5565 5566 5567 5568 5569 5570 5571 5573 5574 5575 5576 5577 5578 5579 5581 5582 5582 5584 5584 5585 5586 5587 5588 5589 5590 5591 5592 5593 5594 5596 5598 5600 5601 5603 5605 5606 5607 5609 5610 5612 5614 5616 5618 5619 5621 5623 5625
5546 5546 5546 5547 5547 5548 5548 5549 5549 5550 5550 5551 5552 5553 5554 5555 5556 5557 5558 5559 5560 5561 5562 5564 5565 5567 5568 5569 5570 5571 5572 5573 5574 5575 5576 5578 5578 5580 5581 5581 5582 5583 5584 5585 5586 5588 5589 5591 5593 5595 5597 5598 5599 5601 5602 5604 5606 5608 5609 5612 5613 5615
5538 5538 5539 5539 5538 5539 5540 5540 5540 5541 5541 5542 5542 5543 5544 5545 5546 5547 5548 5549 5550 5551 5552 5553 5554 5556 5557 5559 5560 5561 5562 5563 5565 5566 5567 5568 5569 5570 5572 5573 5574 5575 5576 5576 5577 5578 5580 5581 5583 5584 5586 5588 5590 5591 5593 5594 5596 5597 5599 5601 5603 5605
5530 5530 5530 5530 5530 5530 5531 5531 5531 5532 5532 5532 5533 5533 5534 5535 5536 5536 5537 5538 5539 5540 5541 5542 5544 5545 5546 5548 5549 5550 5552 5553 5554 5556 5557 5558 5559 5561 5562 5563 5565 5566 5567 5568 5569 5570 5571 5572 5573 5575 5576 5578 5580 5582 5583 5585 5586 5587 5589 5590 5592 5594
5521 5522 5522 5522 5522 5522 5522 5522 5522 5522 5523 5523 5523 5523 5524 5525 5525 5526 5527 5527 5528 5529 5530 5531 5532 5534 5535 5536 5538 5539 5540 5542 5544 5545 5546 5548 5549 5550 5552 5554 5555 5556 5558 5559 5560 5561 5561 5563 5564 5565 5567 5568 5570 5572 5573 5575 5577 5578 5579 5580 5582 5583
5513 5513 5513 5513 5513 5513 5513 5512 5512 5513 5513 5513 5513 5514 5514 5514 5515 5515 5516 5517 5517 5518 5519 5520 5521 5522 5524 5525 5526 5527 5529 5530 5532 5534 5535 5537 5538 5539 5541 5543 5544 5546 5547 5549 5550 5551 5552 5553 5554 5556 5557 5559 5560 5562 5564 5565 5567 5569 5570 5572 5573 5574
5504 5503 5503 5503 5503 5503 5503 5502 5502 5502 5502 5503 5503 5503 5503 5504 5504 5504 5505 5506 5506 5507 5508 5509 5510 5511 5512 5513 5514 5515 5517 5518 5520 5522 5523 5525 5527 5528 5530 5531 5533 5535 5536 5538 5539 5541 5542 5543 5545 5546 5547 5549 5551 5552 5554 5556 5558 5559 5561 5563 5564 5566
5495 5494 5494 5493 5493 5492 5492 5492 5491 5491 5491 5491 5492 5492 5492 5492 5493 5493 5494 5494 5495 5496 5496 5497 5498 5499 5500 5501 5503 5504 5505 5506 5508 5510 5511 5513 5515 5517 5518 5520 5521 5523 5524 5526 5528 5529 5531 5532 5534 5536 5537 5538 5540 5542 5544 5546 5548 5549 5551 5553 5554 5556
5486 5485 5484 5484 5483 5482 5481 5480 5480 5479 5479 5480 5480 5480 5480 5481 5481 5482 5482 5483 5483 5484 5485 5485 5486 5487 5488 5489 5491 5492 5493 5494 5496 5497 5499 5501 5503 5505 5506 5508 5509 5511 5512 5514 5516 5517 5519 5520 5522 5524 5526 5527 5529 5531 5533 5535 5537 5539 5541 5543 5544 5546
5476 5475 5474 5474 5472 5471 5470 5469 5468 5467 5467 5468 5468 5467 5467 5468 5468 5469 5469 5470 5471 5471 5472 5473 5474 5475 5476 5477 5478 5479 5481 5482 5484 5485 5487 5488 5490 5492 5494 5496 5497 5499 5501 5502 5503 5505 5506 5507 5509 5511 5514 5516 5518 5520 5522 5524 5526 5528 5531 5532 5534 5536
5467 5465 5464 5463 5461 5460 5459 5457 5456 5455 5455 5455 5455 5454 5455 5455 5455 5455 5456 5457 5457 5458 5459 5460 5462 5463 5464 5465 5466 5467 5468 5470 5471 5473 5474 5476 5478 5479 5481 5483 5485 5487 5488 5490 5491 5493 5494 5495 5496 5498 5501 5503 5505 5508 5510 5513 5515 5517 5519 5522 5524 5525
5456 5455 5453 5452 5450 5449 5447 5445 5444 5443 5442 5442 5441 5441 5441 5441 5441 5441 5442 5442 5443 5444 5445 5447 5448 5449 5450 5452 5453 5454 5456 5457 5459 5460 5462 5463 5465 5467 5468 5470 5472 5474 5476 5478 5479 5481 5482 5482 5483 5485 5488 5490 5492 5495 5498 5501 5504 5505 5507 5510 5512 5514
5445 5443 5442 5440 5438 5436 5434 5433 5431 5430 5429 5428 5427 5427 5426 5426 5427 5427 5427 5427 5428 5429 5431 5433 5434 5435 5436 5438 5440 5441 5443 5444 5446 5447 5449 5451 5452 5454 5455 5457 5459 5461 5463 5465 5467 5468 5470 5470 5471 5473 5475 5477 5479 5481 5485 5489 5492 5494 5495 5497 5499 5502
5433 5431 5429 5427 5425 5423 5421 5419 5417 5416 5415 5414 5413 5413 5412 5412 5412 5412 5412 5413 5413 5415 5416 5418 5420 5421 5422 5424 5425 5427 5429 5431 5433 5434 5436 5438 5439 5441 5442 5444 5445 5447 5449 5451 5454 5456 5457 5458 5458 5460 5462 5464 5466 5468 5471 5476 5479 5481 5484 5485 5487 5489
5422 5419 5417 5414 5412 5410 5408 5405 5403 5402 5400 5399 5398 5398 5398 5398 5398 5398 5398 5397 5398 5400 5402 5403 5405 5406 5407 5409 5410 5412 5414 5416 5418 5420 5422 5424 5426 5427 5429 5430 5432 5433 5435 5437 5440 5442 5444 5445 5445 5446 5448 5451 5452 5454 5458 5462 5466 5469 5471 5473 5475 5477
5410 5407 5405 5403 5400 5398 5395 5393 5390 5388 5386 5385 5384 5383 5383 5383 5383 5384 5383 5382 5383 5385 5386 5388 5389 5390 5392 5393 5395 5397 5399 5401 5403 5405 5407 5410 5411 5413 5415 5416 5418 5419 5421 5423 5425 5428 5431 5431 5431 5433 5435 5437 5439 5441 5444 5449 5452 5456 5459 5461 5463 5465
5400 5396 5393 5391 5388 5386 5384 5381 5379 5377 5374 5372 5371 5370 5369 5369 5370 5370 5369 5368 5369 5370 5371 5372 5374 5375 5376 5377 5379 5381 5383 5385 5387 5389 5392 5394 5396 5398 5400 5402 5403 5405 5407 5408 5411 5414 5417 5417 5417 5418 5420 5422 5424 5427 5431 5435 5439 5442 5445 5448 5450 5452
5389 5386 5382 5379 5377 5375 5372 5370 5368 5366 5363 5361 5359 5358 5357 5357 5357 5356 5355 5354 5355 5355 5356 5358 5359 5360 5361 5362 5363 5365 5367 5369 5370 5373 5376 5378 5380 5382 5384 5386 5388 5390 5392 5394 5396 5399 5402 5403 5402 5403 5405 5407 5409 5413 5417 5421 5425 5429 5432 5435 5437 5439
5379 5376 5372 5369 5366 5364 5362 5359 5357 5355 5352 5350 5348 5347 5346 5346 5345 5343 5342 5341 5341 5342 5343 5345 5346 5346 5347 5347 5349 5350 5351 5353 5354 5356 5359 5361 5363 5365 5367 5369 5372 5374 5376 5379 5381 5383 5386 5388 5388 5388 5390 5392 5394 5397 5402 5406 5411 5415 5418 5421 5423 5425
5369 5366 5362 5359 5357 5355 5352 5350 5347 5344 5341 5339 5337 5336 5336 5335 5333 5331 5330 5329 5329 5330 5331 5332 5332 5333 5333 5334 5335 5336 5336 5337 5339 5341 5342 5344 5347 5349 5351 5353 5356 5358 5360 5362 5364 5367 5370 5373 5374 5373 5374 5377 5379 5381 5385 5391 5395 5399 5403 5406 5409 5412
5360 5356 5353 5350 5348 5345 5343 5341 5338 5334 5331 5329 5327 5326 5326 5325 5322 5321 5320 5319 5319 5320 5320 5320 5320 5320 5321 5321 5322 5323 5323 5323 5325 5326 5327 5329 5331 5333 5335 5337 5340 5343 5344 5345 5347 5350 5352 5355 5359 5359 5359 5361 5363 5365 5369 5374 5379 5383 5387 5390 5394 5398
5352 5348 5344 5341 5339 5337 5334 5332 5329 5325 5322 5320 5318 5318 5316 5314 5313 5311 5310 5309 5310 5310 5309 5309 5309 5309 5309 5310 5310 5311 5310 5310 5312 5313 5314 5315 5316 5318 5320 5321 5324 5327 5328 5329 5330 5333 5335 5338 5342 5344 5345 5345 5347 5349 5352 5357 5362 5366 5369 5374 5379 5383
5344 5340 5336 5333 5330 5328 5326 5323 5320 5317 5314 5312 5311 5310 5308 5306 5304 5303 5302 5301 5301 5301 5300 5300 5300 5300 5299 5299 5300 5300 5299 5298 5300 5300 5301 5302 5303 5304 5306 5307 5308 5310 5313 5313 5314 5316 5318 5321 5324 5328 5329 5329 5331 5333 5336 5340 5346 5349 5352 5357 5363 5367
5336 5332 5328 5325 5323 5320 5318 5315 5312 5309 5306 5305 5304 5302 5300 5298 5296 5295 5294 5294 5293 5292 5292 5292 5291 5290 5290 5290 5290 5290 5289 5288 5289 5289 5289 5290 5291 5292 5293 5293 5294 5296 5298 5299 5299 5300 5302 5304 5307 5310 5312 5313 5315 5317 5320 5323 5328 5331 5333 5339 5346 5351
5329 5325 5320 5317 5315 5313 5310 5308 5305 5302 5300 5298 5297 5295 5293 5291 5289 5288 5287 5286 5285 5285 5284 5283 5282 5282 5282 5282 5281 5281 5280 5280 5280 5279 5278 5279 5279 5280 5281 5281 5281 5283 5284 5285 5286 5286 5287 5288 5291 5292 5294 5296 5299 5301 5303 5306 5309 5313 5315 5320 5328 5335
5322 5318 5314 5310 5308 5306 5303 5301 5299 5296 5293 5292 5290 5288 5286 5284 5283 5281 5280 5279 5278 5277 5276 5275 5274 5274 5274 5273 5273 5273 5272 5271 5271 5270 5269 5269 5269 5270 5270 5270 5270 5270 5271 5273 5274 5274 5274 5274 5275 5276 5277 5279 5282 5284 5286 5288 5291 5294 5297 5302 5310 5317
5316 5312 5307 5303 5301 5299 5297 5294 5292 5290 5288 5285 5284 5282 5279 5278 5276 5275 5273 5272 5271 5270 5269 5268 5267 5266 5266 5266 5265 5265 5264 5264 5263 5262 5261 5260 5260 5260 5259 5259 5259 5259 5260 5261 5262 5263 5262 5261 5261 5262 5262 5262 5264 5266 5269 5271 5274 5277 5280 5284 5291 5297
5310 5306 5302 5298 5295 5293 5290 5287 5285 5284 5282 5280 5278 5275 5273 5272 5270 5269 5267 5266 5265 5264 5263 5262 5261 5260 5259 5259 5258 5257 5257 5256 5255 5255 5253 5252 5252 5251 5250 5249 5249 5248 5249 5250 5251 5251 5251 5250 5250 5249 5248 5247 5248 5251 5253 5255 5257 5260 5262 5265 5271 5276
5304 5300 5296 5292 5289 5287 5284 5281 5279 5278 5277 5274 5272 5270 5268 5266 5265 5263 5262 5260 5259 5258 5257 5256 5255 5254 5253 5252 5251 5250 5249 5249 5248 5247 5245 5244 5243 5243 5241 5240 5240 5239 5239 5240 5240 5240 5240 5240 5238 5237 5235 5234 5235 5236 5238 5239 5241 5243 5245 5248 5251 5254
5299 5295 5291 5287 5284 5281 5278 5275 5273 5272 5271 5269 5266 5264 5262 5261 5259 5257 5256 5255 5254 5252 5251 5250 5249 5248 5247 5246 5245 5244 5243 5242 5241 5240 5238 5236 5234 5234 5233 5232 5231 5230 5230 5230 5229 5229 5229 5229 5228 5225 5223 5222 5222 5223 5224 5226 5227 5228 5229 5232 5233 5235
5294 5290 5286 5282 5279 5276 5273 5270 5267 5266 5266 5263 5261 5259 5257 5255 5254 5252 5251 5250 5248 5247 5246 5245 5243 5243 5242 5241 5240 5238 5237 5235 5234 5233 5232 5229 5227 5225 5224 5223 5222 5221 5221 5221 5220 5219 5219 5219 5217 5215 5213 5211 5211 5210 5211 5213 5213 5214 5216 5217 5216 5219
5289 5285 5281 5277 5274 5271 5268 5264 5262 5261 5260 5258 5255 5253 5252 5250 5249 5246 5245 5244 5243 5242 5240 5239 5238 5237 5236 5235 5234 5233 5232 5229 5227 5225 5224 5223 5221 5219 5216 5215 5214 5213 5212 5212 5211 5211 5210 5209 5207 5205 5204 5202 5201 5200 5199 5200 5201 5201 5202 5202 5203 5207
5284 5280 5276 5272 5269 5266 5263 5259 5257 5256 5254 5252 5250 5248 5247 5245 5244 5241 5240 5239 5238 5236 5235 5234 5233 5232 5231 5229 5228 5227 5226 5225 5223 5219 5216 5215 5213 5212 5210 5208 5207 5206 5204 5203 5202 5202 5202 5201 5199 5197 5195 5193 5192 5191 5190 5190 5190 5189 5188 5189 5191 5195
5280 5276 5272 5268 5264 5261 5258 5254 5252 5251 5249 5246 5244 5243 5242 5240 5238 5236 5235 5233 5232 5231 5229 5229 5228 5226 5225 5224 5223 5221 5220 5219 5218 5216 5213 5209 5206 5204 5202 5201 5200 5199 5198 5196 5195 5194 5194 5193 5191 5190 5188 5186 5184 5182 5182 5181 5180 5178 5178 5178 5179 5182
5275 5271 5268 5264 5260 5256 5253 5250 5248 5246 5243 5241 5239 5238 5236 5235 5233 5231 5230 5228 5227 5225 5224 5223 5222 5221 5220 5218 5217 5216 5215 5213 5212 5211 5209 5207 5203 5199 5195 5194 5193 5192 5191 5190 5189 5187 5187 5186 5184 5183 5181 5179 5177 5175 5174 5173 5172 5169 5168 5169 5170 5171
5271 5267 5263 5259 5255 5252 5248 5245 5243 5241 5238 5235 5234 5233 5231 5230 5228 5226 5225 5223 5222 5220 5219 5217 5216 5216 5214 5213 5212 5210 5209 5208 5206 5205 5203 5202 5200 5197 5193 5190 5187 5186 5185 5184 5183 5182 5180 5179 5178 5176 5174 5172 5171 5169 5167 5165 5164 5162 5161 5160 5160 5162
5267 5263 5259 5255 5251 5248 5244 5241 5239 5236 5233 5231 5229 5227 5225 5224 5223 5221 5219 5218 5217 5215 5213 5212 5211 5210 5209 5207 5206 5205 5204 5202 5201 5199 5198 5196 5194 5193 5190 5188 5185 5183 5180 5179 5178 5177 5175 5174 5173 5171 5169 5166 5164 5162 5161 5159 5157 5156 5154 5152 5152 5153